Tracking 19562 objects as of 25-Mar-2019
HD Live streaming from Space Station
objects crossing your sky now

USA 24

Track USA 24 now!
10-day predictions
USA 24 is classified as:


NORAD ID: 18010
Int'l Code: 1987-043F
Perigee: 414.8 km
Apogee: 1,777.8 km
Inclination: 63.3 °
Period: 107.0 minutes
Semi major axis: 7467 km
RCS: Unknown
Launch date: May 15, 1987
Source: United States (US)
Launch site: AIR FORCE WESTERN TEST RANGE (AFWTR)
aabbcc
Your satellite tracking list
Your tracking list is empty




NASA's NSSDC Master Catalog

Two Line Element Set (TLE):
1 18010U 87043F   19063.75218013 0.00000800  00000-0  83040-4 0    08
2 18010  63.3089 285.6302 0912626  55.4078 304.5922 13.45413932    02
Source of the keplerian elements: McCants